EXPRESS-AM8             
1 40895U 15048A   19261.22492037 -.00000115  00000-0  00000+0 0  9999
2 40895   0.0425 309.9082 0000695 325.4649 148.4585  1.00272099 14676
BLOCK DM-SL R/B         
1 40896U 15048B   19260.65683790 -.00000037  00000-0  00000+0 0  9997
2 40896   3.1567  81.8315 0092536  78.3342 283.1800  0.98655535 14451